User: anonymous   Login
Location: Unspecified
(0.0000°N, 0.0000°E)
Time: 05:56:05
(UTC+00:00)
Language:

Okean 1-7 - Orbit

View from above orbital plane
View from above orbital plane
View from above satellite
View from above satellite

Ground track
Ground track

The orbit data is extracted from the following two-line orbital elements,

1 23317U 94066A   19083.55850994  .00000156  00000-0  14265-4 0  9991
2 23317  82.5373 231.2752 0021279  83.4773 276.8866 14.87647609321888
Epoch (UTC): 24 March 2019 13:24:15
Eccentricity: 0.0021279
inclination: 82.5373°
perigee height: 590 km
apogee height: 620 km
right ascension of ascending node: 231.2752°
argument of perigee: 83.4773°
revolutions per day: 14.87647609
mean anomaly at epoch: 276.8866°
orbit number at epoch: 32188

The dashed part of the orbit path shows where the satellite is in the earth's shadow,  

DLR